Poughkeepsie, NY
on Thursday, December 7, 2017

Thursday
       
Previous Day Next Day
Daily Summary
 ActualAverageRecord
Temperature
Mean Temperature °F °C 34°F 1°C  
Max Temperature 44°F 7°C 43°F 6°C 60°F 15°C (2001)
Min Temperature 30°F -1°C 25°F -4°C 1°F -17°C (1964)
Degree Days
Heating Degree Days 28 31  
Month to date heating degree days 185 208  
Since 1 July heating degree days 1268 1486  
Cooling Degree Days 0 0  
Month to date cooling degree days 0 0  
Year to date cooling degree days 718 672  
Moisture
Dew Point 19°F -7°C   
Average Humidity 46    
Maximum Humidity 63    
Minimum Humidity 29    
Precipitation
Precipitation 0.00 in / 0.00 cm 0.12 in / 3.05 cm 2.12 in / 5.38 cm (2011)
Month to date precipitation 0.33 0.86  
Year to date precipitation 35.87 43.86  
Wind
Wind Speed 9 mph / 14 km/h   
Max Wind Speed 21 mph / 34 km/h   
Max Gust Speed 25 mph / 40 km/h   
Visibility 10 miles / 16 kilometers   
Events     

Key: T is trace of precipitation, MM is missing value
Source: NWS Daily Summary
Time(EST)TemperatureDew PointHumidity Pressure Visibility Wind DirectionWind SpeedGust SpeedPrecipitationEvents Conditions
12:53 AM 37.9°F 3.3°C 19.9°F -6.7°C 48% 29.95 in / 1014.0 hPa 10.0 miles / 16.1 kilometers WSW 8.1 mph / 13.0 km/h - N/A   Overcast
1:53 AM 37.9°F 3.3°C 19.9°F -6.7°C 48% 29.95 in / 1014.0 hPa 10.0 miles / 16.1 kilometers SW 9.2 mph / 14.8 km/h - N/A   Overcast
2:53 AM 37.0°F 2.8°C 19.9°F -6.7°C 50% 29.94 in / 1013.9 hPa 10.0 miles / 16.1 kilometers SW 11.5 mph / 18.5 km/h - N/A   Overcast
3:53 AM 34.0°F 1.1°C 21.0°F -6.1°C 59% 29.93 in / 1013.5 hPa 10.0 miles / 16.1 kilometers WSW 5.8 mph / 9.3 km/h - N/A   Clear
4:53 AM 34.0°F 1.1°C 21.0°F -6.1°C 59% 29.94 in / 1013.6 hPa 10.0 miles / 16.1 kilometers WSW 5.8 mph / 9.3 km/h - N/A   Clear
5:53 AM 32.0°F 0.0°C 21.0°F -6.1°C 64% 29.95 in / 1014.0 hPa 10.0 miles / 16.1 kilometers WSW 5.8 mph / 9.3 km/h - N/A   Clear
6:53 AM 32.0°F 0.0°C 21.0°F -6.1°C 64% 29.96 in / 1014.6 hPa 10.0 miles / 16.1 kilometers WSW 4.6 mph / 7.4 km/h - N/A   Clear
7:53 AM 32.0°F 0.0°C 21.0°F -6.1°C 64% 29.98 in / 1015.0 hPa 10.0 miles / 16.1 kilometers SW 4.6 mph / 7.4 km/h - N/A   Clear
8:53 AM 36.0°F 2.2°C 21.9°F -5.6°C 57% 29.99 in / 1015.3 hPa 10.0 miles / 16.1 kilometers WSW 6.9 mph / 11.1 km/h - N/A   Clear
9:53 AM 39.0°F 3.9°C 19.0°F -7.2°C 45% 29.98 in / 1015.1 hPa 10.0 miles / 16.1 kilometers West 11.5 mph / 18.5 km/h - N/A   Partly Cloudy
10:53 AM 41.0°F 5.0°C 19.9°F -6.7°C 43% 29.97 in / 1014.8 hPa 10.0 miles / 16.1 kilometers SW 10.4 mph / 16.7 km/h 20.7 mph / 33.3 km/h N/A   Partly Cloudy
11:53 AM 42.1°F 5.6°C 18.0°F -7.8°C 38% 29.94 in / 1013.9 hPa 10.0 miles / 16.1 kilometers WSW 17.3 mph / 27.8 km/h 21.9 mph / 35.2 km/h N/A   Clear
12:53 PM 43.0°F 6.1°C 18.0°F -7.8°C 37% 29.92 in / 1013.2 hPa 10.0 miles / 16.1 kilometers WSW 15.0 mph / 24.1 km/h 21.9 mph / 35.2 km/h N/A   Partly Cloudy
1:53 PM 43.0°F 6.1°C 15.1°F -9.4°C 32% 29.90 in / 1012.5 hPa 10.0 miles / 16.1 kilometers West 10.4 mph / 16.7 km/h - N/A   Partly Cloudy
2:53 PM 43.0°F 6.1°C 12.9°F -10.6°C 30% 29.90 in / 1012.5 hPa 10.0 miles / 16.1 kilometers West 13.8 mph / 22.2 km/h - N/A   Clear
3:53 PM 41.0°F 5.0°C 14.0°F -10.0°C 33% 29.92 in / 1013.0 hPa 10.0 miles / 16.1 kilometers WSW 11.5 mph / 18.5 km/h 20.7 mph / 33.3 km/h N/A   Clear
4:53 PM 39.9°F 4.4°C 14.0°F -10.0°C 35% 29.92 in / 1013.0 hPa 10.0 miles / 16.1 kilometers SW 5.8 mph / 9.3 km/h - N/A   Clear
5:53 PM 37.0°F 2.8°C 15.1°F -9.4°C 41% 29.93 in / 1013.4 hPa 10.0 miles / 16.1 kilometers SW 8.1 mph / 13.0 km/h - N/A   Clear
6:53 PM 37.9°F 3.3°C 15.1°F -9.4°C 39% 29.95 in / 1014.2 hPa 10.0 miles / 16.1 kilometers WSW 10.4 mph / 16.7 km/h - N/A   Mostly Cloudy
7:53 PM 37.0°F 2.8°C 18.0°F -7.8°C 46% 29.96 in / 1014.3 hPa 10.0 miles / 16.1 kilometers WSW 6.9 mph / 11.1 km/h - N/A   Scattered Clouds
8:53 PM 37.0°F 2.8°C 19.0°F -7.2°C 48% 29.97 in / 1014.9 hPa 10.0 miles / 16.1 kilometers SW 5.8 mph / 9.3 km/h - N/A   Clear
9:53 PM 37.0°F 2.8°C 19.9°F -6.7°C 50% 29.98 in / 1015.1 hPa 10.0 miles / 16.1 kilometers SW 6.9 mph / 11.1 km/h - N/A   Mostly Cloudy
10:53 PM 35.1°F 1.7°C 19.9°F -6.7°C 54% 29.99 in / 1015.5 hPa 10.0 miles / 16.1 kilometers SW 4.6 mph / 7.4 km/h - N/A   Mostly Cloudy
11:53 PM 33.1°F 0.6°C 21.9°F -5.6°C 64% 29.99 in / 1015.5 hPa 10.0 miles / 16.1 kilometers SW 4.6 mph / 7.4 km/h - N/A   Mostly Cloudy